Weather Roundup
Issued by NWS Corpus Christi, TX

Home | Current Version | Previous Version | Text Only | Print | Product List | Glossary On
Versions: 1 2 3 4 5 6 7 8 9 10 11 12 13 14 15 16 17 18 19 20 21 22 23 24 25 26 27 28 29 30 31 32 33 34 35 36 37 38 39 40 41 42 43 44 45 46 47 48 49 50
000
ASUS44 KCRP 220610
HRRCRP

SOUTH TEXAS REGIONAL WEATHER ROUNDUP
NATIONAL WEATHER SERVICE CORPUS CHRISTI TX
100 AM CDT FRI AUG 22 2014


TXZ229>244-220700-
...CORPUS CHRISTI AREA OBSERVATIONS...

CITY           SKY/WX    TMP DP  RH WIND       PRES   REMARKS
CORPUS CHRISTI FAIR      83  78  85 S20       30.04F HX  93
NAS CORPUS CHR FAIR      83  80  91 S15       30.05S HX  95
ROCKPORT       FAIR      84  79  85 SE10      30.04F HX  96
KINGSVILLE NAS FAIR      83  80  91 SE17      30.05R HX  95
ALICE          CLOUDY    82  78  88 S14       30.04S HX  91
FALFURRIAS     FAIR      87  73  61 SE13      30.04S HX  94
$$

...VICTORIA AREA OBSERVATIONS...

CITY           SKY/WX    TMP DP  RH WIND       PRES   REMARKS
VICTORIA       FAIR      83  79  88 S13       30.05F HX  94
BEEVILLE       FAIR      82  77  82 S13G18    30.05S HX  90
PLEASANTON     FAIR      81  73  77 SE9       30.04S
SAN ANTONIO    MOCLDY    82  74  76 SE13      30.05S
$$

...LAREDO AREA OBSERVATIONS...

CITY           SKY/WX    TMP DP  RH WIND       PRES   REMARKS
LAREDO         FAIR      86  69  56 SE20G26   30.04R HX  90
COTULLA        FAIR      85  74  69 SE15G23   30.01R HX  92
DEL RIO        FAIR      89  59  36 SE13      29.96R
MCALLEN        FAIR      82  76  81 SE17G24   30.06R
HEBBRONVILLE   FAIR      82  72  72 SE15G22   30.06R
$$

...OTHER TEXAS OBSERVATIONS...

CITY           SKY/WX    TMP DP  RH WIND       PRES   REMARKS
BROWNSVILLE    FAIR      81  79  94 SE7       30.07S HX  90
HOUSTON        FAIR      81  76  84 S6        30.05F
COL. STATION   FAIR      80  74  81 S13       30.04F
AUSTIN         MOCLDY    82  74  76 S14       30.04R
WACO           FAIR      84  72  67 S20       30.00S
FORT WORTH     FAIR      87  67  51 S17G28    29.97S HX  90
WICHITA FALLS  FAIR      82  59  45 S8        29.94S
LUBBOCK        FAIR      79  60  52 S14       30.04S
EL PASO        MOCLDY    81  55  40 W7        30.05F
$$

...MARINE OBSERVATIONS...

STATION/POSITION TIME  SKY/WX   TEMP    WIND        PRES    VSBY  WAVE   SWELL
                                AIR SEA DIR/SP/G                  HT/PER HT/PER
                 (UTC)          (F)     (DEG/KT/KT) (MB)    (MI)  (FT/S) (FT/S)
PORT ARANSAS     0600            83 84  140/ 13/ 14 1018.2R
BUOY 90 E PORT A 0600            85 85  150/ 16/ 17 1018.5F         3/ 6   2/ 9
BUOY 45 SE BAFFI 0600            85 84  160/ 17/ 21 1017.2F         4/ 6
BUOY 200 E PT IS 0600            85 86  130/ 12/ 14 1018.9F         3/ 7   2/ 7
BUOY 15 E GALVES NOT AVBL
$$


USA.gov is the U.S. government's official web portal to all federal, state and local government web resources and services.